User: anonymous   Login
Location: Broad Creek
(39.7000°N, 76.2570°W)
Time: 00:23:02
(UTC-04:00)
Language:

ATLAS 5 CENTAUR R/B - Orbit

View from above orbital plane
View from above orbital plane
View from above satellite
View from above satellite

Ground track
Ground track

The orbit data is extracted from the following two-line orbital elements,

1 31702U 07027B   15183.97249780 0.00000400  00000-0  16065-3 0    01
2 31702  63.3740 145.5747 0193000 355.1228   4.8772 14.18378609    05
Epoch (UTC): 02 July 2015 23:20:23
Eccentricity: 0.0193000
inclination: 63.3740°
perigee height: 692 km
apogee height: 970 km
right ascension of ascending node: 145.5747°
argument of perigee: 355.1228°
revolutions per day: 14.18378609
mean anomaly at epoch: 4.8772°
orbit number at epoch: 0

The dashed part of the orbit path shows where the satellite is in the earth's shadow,  

DLR